Regional Weather Roundup
Issued by NWS

Home | Current Version | Previous Version | Graphics & Text | Print | Product List | Glossary On
Versions: 1 2 3 4 5 6 7 8 9 10 11 12 13 14 15 16 17 18 19 20 21 22 23 24 25 26 27 28 29 30 31 32 33 34 35 36 37 38 39 40 41 42 43 44 45 46 47 48 49 50
000
ASUS43 KLOT 112003
RWRIL

ILLINOIS REGIONAL WEATHER ROUNDUP
NATIONAL WEATHER SERVICE CHICAGO/ROMEOVILLE IL
200 PM CST THU FEB 11 2016

NOTE: "FAIR" INDICATES FEW OR NO CLOUDS BELOW 12,000 FEET WITH NO
SIGNIFICANT WEATHER AND/OR OBSTRUCTIONS TO VISIBILITY.

* THESE STATIONS ARE NOT UNDER NWS QUALITY CONTROL. THEY ALSO MAY NOT
  REPORT WEATHER SUCH AS PRECIPITATION OR FOG.

ILZ001-002-007-009-015-016-024-112100-
NORTHWEST ILLINOIS

CITY           SKY/WX    TMP DP  RH WIND       PRES   REMARKS
MOLINE         SUNNY     23   1  38 SW6       30.32F WCI  16
STERLING*      SUNNY     23   5  46 W6        30.30S WCI  16
$$

ILZ003-004-008-010-011-017-018-112100-
NORTH CENTRAL ILLINOIS

CITY           SKY/WX    TMP DP  RH WIND       PRES   REMARKS
ROCKFORD       MOSUNNY   20   4  50 CALM      30.32F
FREEPORT*      SUNNY     18   2  49 NW3       30.31F
ROCHELLE*      SUNNY     20   4  51 W3        30.31S
DE KALB*       SUNNY     19   6  56 NW6       30.29F WCI  11
$$

ILZ005-006-012>014-019>023-112100-
NORTHEAST ILLINOIS

CITY           SKY/WX    TMP DP  RH WIND       PRES   REMARKS
CHICAGO-OHARE  MOSUNNY   20   3  48 W7        30.28F WCI  11
CHICAGO-MIDWAY MOSUNNY   21   0  39 W5        30.29F WCI  15
AURORA         SUNNY     21   7  54 W8        30.30F WCI  11
LANSING*       SUNNY     22   0  39 W6        30.29F WCI  14
WAUKEGAN       SUNNY     19   1  45 VRB6      30.27F WCI  11
DUPAGE AIRPORT SUNNY     20   3  48 W7        30.28F WCI  11
WHEELING       SUNNY     20   3  48 NW12      30.30F WCI   8
MORRIS*        SUNNY     21   5  48 NW3       30.29F
NORTHERLY ISL    N/A     20   5  52 NE6         N/A  WCI  12
$$

LMZ740>746-112100-
SOUTHERN LAKE MICHIGAN

STATION/POSITION SKY/WX   TEMP    WIND        PRES    VSBY  WAVE
                          AIR SEA DIR/SP/G                  HT/PER
                          (F)     (DEG/KT/KT) (MB)    (MI)  (FT/S)
HARRISON CRIB              17      20/  5/  8   N/A
BURNHAM HARBOR             20      60/  4/  8   N/A
CALUMET HARBOR             18     350/  8/ 10 1025.5F
BURNS HARBOR               17     320/ 13/ 15 1026.8R
MICHIGAN CITY              19     260/ 17/ 19   N/A
$$

ILZ025>027-034>036-040-047-049-050-058-095>099-112100-
WEST-CENTRAL ILLINOIS

CITY           SKY/WX    TMP DP  RH WIND       PRES   REMARKS
QUINCY         SUNNY     22   5  48 N5        30.30F WCI  16
MACOMB*        SUNNY     24   8  51 CALM      30.33F
$$

ILZ028>032-037-038-041>044-048-051>054-059>061-112100-
CENTRAL ILLINOIS

CITY           SKY/WX    TMP DP  RH WIND       PRES   REMARKS
BLOOMINGTON    SUNNY     24   6  46 N5        30.30F WCI  18
DECATUR        SUNNY     25   9  50 MISG      30.30F
PEORIA         SUNNY     25   2  37 VRB3      30.31F
LACON*         SUNNY     22   3  43 NW3       30.32F
LINCOLN*       SUNNY     25   7  46 N5        30.32R WCI  20
SPRINGFIELD    SUNNY     27   8  44 VRB5      30.31S WCI  22
TAYLORVILLE    NOT AVBL
$$

ILZ033-039-045-046-055>057-062-063-112100-
EAST-CENTRAL ILLINOIS

CITY           SKY/WX    TMP DP  RH WIND       PRES   REMARKS
CHAMPAIGN      SUNNY     23   4  44 CALM      30.29F
MATTOON        SUNNY     22   7  52 NE7       30.29F WCI  13
$$

ILZ079-100>102-112100-
SOUTHWEST ILLINOIS

CITY           SKY/WX    TMP DP  RH WIND       PRES   REMARKS
BELLEVILLE     SUNNY     30  11  46 N6        30.29F WCI  24
CAHOKIA*       SUNNY     31  11  43 N8        30.31S WCI  23
SPARTA*        SUNNY     28  18  66 CALM      30.29F
$$

ILZ064>066-069>071-074>076-080>082-084>086-088>090-092>094-112100-
SOUTH-CENTRAL ILLINOIS

CITY           SKY/WX    TMP DP  RH WIND       PRES   REMARKS
CARBONDALE     SUNNY     32  18  56 NE8       30.27F WCI  25
CAIRO*         SUNNY     37  26  63 E7        30.26F WCI  31
MARION         MOSUNNY   32  18  55 N8        30.28F WCI  25
MT. VERNON     SUNNY     30   9  40 N7        30.28F WCI  23
CENTRALIA*     SUNNY     29  14  54 NE5       30.28F WCI  24
SALEM*         SUNNY     28   9  44 NE7       30.29F WCI  21
$$

ILZ067-068-072-073-078-083-087-091-112100-
SOUTHEAST ILLINOIS

CITY           SKY/WX    TMP DP  RH WIND       PRES   REMARKS
LAWRENCEVILLE  SUNNY     27  11  51 VRB5      30.30F WCI  22
HARRISBURG*    SUNNY     31  19  62 N7        30.29F WCI  24
ROBINSON*      SUNNY     26   9  49 NE3       30.31F
CARMI*         SUNNY     31  16  53 CALM      30.28F
$$

ABBREVIATIONS USED IN REMARKS
   TC - TEMPERATURE IN CELSIUS
  WCI - WIND CHILL INDEX
   HX - HEAT INDEX
  VSB - VISIBILITY
$$




USA.gov is the U.S. government's official web portal to all federal, state and local government web resources and services.